Wind_Speed
6 9 11 12 5 3 10 7 6 4 5 5 5 6 4 1 1 2 4 3 3 5 6 7 9 10 10 11 11 11 10 10 10 10 9 9 8 8 7 6 5 5 5 5 5 5 5 6 7
4 9 10 10 4 8 7 9 6 3 2 4 4 4 4 4 6 7 6 6 5 5 4 4 6 7 8 9 9 10 11 10 9 9 9 8 8 8 8 8 7 6 5 5 4 5 6 6 7
5 10 9 5 4 8 9 10 6 4 3 2 2 3 5 4 5 6 6 8 9 6 4 3 4 5 5 6 7 8 8 9 9 9 8 8 7 7 7 6 6 6 6 6 6 7 7 8 8
8 11 7 5 6 7 6 9 6 5 5 3 2 2 5 5 5 5 5 6 7 7 5 5 5 4 4 4 5 6 7 7 7 7 7 7 7 6 6 7 6 6 6 6 6 6 6 6 7
12 12 9 5 8 7 7 9 6 6 6 4 3 2 4 5 5 6 4 5 5 5 5 6 6 6 5 6 6 6 6 6 6 6 6 6 6 6 6 7 7 7 7 7 7 7 8 8 8
10 13 8 9 7 9 12 10 9 7 6 6 6 4 4 4 4 6 4 4 3 3 3 3 4 4 4 5 6 7 7 6 5 4 4 4 5 5 6 6 6 6 6 7 7 7 7 8 9
10 12 10 10 10 10 12 13 12 9 8 8 7 5 4 3 2 4 3 2 2 1 0 1 1 1 3 4 4 5 5 5 6 6 5 5 5 5 5 6 6 7 7 7 7 7 7 8 8
12 12 13 14 14 12 15 14 13 11 10 10 8 3 1 2 4 2 2 2 1 2 2 3 4 4 3 4 5 5 5 6 5 5 6 6 6 6 5 6 7 7 7 8 8 8 8 9 9
14 14 15 14 14 12 16 16 14 15 14 14 11 8 7 6 6 4 3 3 3 3 4 6 6 7 7 7 7 7 7 8 8 8 8 7 7 7 7 8 7 8 9 9 10 10 10 11 11
17 19 17 15 16 16 17 18 15 18 17 16 15 14 12 11 9 7 6 5 6 7 7 8 9 10 10 10 11 11 11 11 12 11 10 10 10 9 10 10 10 10 10 11 12 13 12 12 12
21 21 19 19 18 17 20 22 21 20 21 19 16 17 17 15 13 10 9 8 9 10 11 11 11 12 12 13 13 14 13 14 14 13 13 13 12 13 12 13 12 12 13 13 14 14 14 13 12
22 22 21 21 23 21 22 25 26 25 24 19 18 21 22 19 15 13 12 13 13 13 13 12 11 12 14 14 14 15 15 16 16 16 16 16 16 16 16 15 15 15 16 16 17 16 16 16 16
24 24 23 23 24 24 23 24 30 29 26 23 21 25 23 20 18 17 18 14 15 17 17 13 13 12 14 13 14 15 15 16 16 17 18 18 18 18 18 18 18 18 19 20 19 19 19 19 20
25 26 27 25 26 24 22 24 29 29 29 24 25 24 23 24 21 21 19 18 21 22 19 15 15 16 15 16 16 17 16 17 17 18 19 20 20 20 20 20 20 20 20 20 20 21 21 22 24
28 29 28 29 27 29 27 30 32 31 29 27 27 27 27 26 26 24 24 25 27 25 19 15 16 17 17 18 18 18 18 19 19 20 20 21 21 21 21 21 21 21 21 21 21 22 23 24 25
27 30 30 29 30 32 32 35 34 34 33 30 29 29 29 29 31 29 29 28 26 24 19 17 17 17 19 19 20 20 20 21 21 22 23 24 24 23 23 22 22 23 23 23 23 24 24 25 26
23 25 27 31 30 29 33 37 36 38 36 36 35 36 35 35 34 33 31 29 25 23 21 20 19 18 18 20 22 24 24 24 24 24 26 27 27 26 25 24 24 25 24 25 25 25 26 25 27
25 25 26 25 23 30 31 34 34 34 37 44 39 39 41 39 38 38 32 26 25 22 22 22 21 21 22 21 22 25 26 27 27 27 27 28 28 27 26 26 26 25 25 25 25 26 27 28 28
18 18 19 20 19 21 21 27 31 29 38 32 37 39 31 33 32 30 28 24 23 23 23 22 22 23 21 22 22 24 25 26 27 28 28 29 29 28 28 27 27 27 26 26 25 26 26 26 28
21 17 17 16 17 20 23 29 28 29 34 34 32 30 31 33 29 27 26 25 24 24 21 21 22 19 19 20 22 25 26 26 26 27 27 27 27 27 26 25 24 24 24 24 23 24 24 25 25
23 19 14 13 12 16 21 30 29 25 26 29 32 29 31 31 30 29 27 26 23 21 20 19 18 18 19 21 23 23 24 25 26 26 25 26 24 23 21 20 20 21 22 21 21 21 22 23 24
26 23 16 16 11 7 10 9 13 8 11 19 24 27 28 30 29 27 25 20 17 16 16 16 17 19 21 23 24 25 24 24 23 23 23 21 19 18 17 18 18 18 18 20 22 23 24 23 22
20 16 18 18 19 22 23 12 13 12 17 22 16 14 15 21 23 20 15 13 13 14 14 17 18 19 20 19 18 17 16 17 18 19 20 19 18 17 17 17 18 19 20 22 23 24 23 22 20
14 15 11 11 11 7 21 18 8 14 14 16 14 22 16 14 12 10 8 8 10 13 16 16 16 18 16 15 14 14 14 15 15 16 17 17 18 18 19 20 21 22 24 25 26 26 24 23 23
19 14 4 2 3 6 3 12 22 9 10 14 14 13 12 11 7 5 7 10 12 12 13 14 14 14 14 14 15 15 15 17 18 19 20 20 21 21 21 22 23 24 25 26 26 25 25 26 27
26 23 7 7 4 3 7 9 4 15 15 13 14 11 10 10 6 6 8 12 14 12 13 14 15 13 14 15 16 17 19 21 22 22 22 23 23 23 23 24 24 25 26 27 27 28 30 32 34
25 27 16 1 2 2 6 9 5 15 17 14 11 8 8 7 7 8 12 13 15 17 15 14 12 13 15 18 20 21 22 23 24 24 25 25 25 25 24 24 25 27 28 29 31 33 35 37 37
19 24 13 9 1 4 4 7 10 13 21 17 11 8 8 11 11 13 14 13 12 12 11 13 16 21 23 24 25 26 25 24 24 25 26 27 27 26 26 26 26 28 28 30 32 34 35 33 32
28 23 18 12 10 4 1 3 7 13 19 15 9 10 12 12 11 12 10 7 8 11 17 22 25 27 29 29 29 28 27 26 25 26 27 28 29 29 29 30 30 30 31 33 34 34 33 33 32
31 30 34 12 6 11 2 4 11 10 10 14 14 14 12 10 8 8 10 13 17 21 25 27 29 31 32 32 31 30 30 29 27 26 28 28 29 30 31 32 33 34 36 35 34 33 33 34 34
Wind_Direction
215 193 185 182 188 192 150 154 150 140 130 126 150 186 226 331 63 72 36 51 137 96 77 63 63 59 55 52 50 49 50 46 41 44 44 37 36 36 34 28 26 26 18 25 14 9 9 7 8
219 193 189 189 225 169 172 167 155 147 148 141 151 175 176 116 104 82 64 65 96 87 87 75 64 59 53 50 45 44 45 44 45 41 43 42 33 30 29 27 23 17 1 356 353 355 358 353 355
203 191 191 204 214 200 184 174 171 185 169 164 176 169 157 136 111 96 75 64 70 86 87 84 71 56 43 42 41 38 39 39 38 40 39 38 31 29 23 28 29 20 10 358 352 348 349 345 344
198 194 216 225 197 191 211 191 203 230 206 200 198 153 163 167 158 123 95 77 74 76 87 92 86 74 50 36 33 34 36 38 34 33 32 31 29 18 8 9 15 15 12 8 1 354 348 341 335
197 200 224 177 176 189 185 186 213 247 256 237 225 251 183 178 175 142 130 105 87 81 79 83 83 71 56 44 38 32 28 25 23 19 25 24 22 15 7 3 1 4 2 358 354 354 351 345 342
198 203 221 182 175 171 174 198 210 228 254 265 258 251 232 204 174 147 158 128 120 106 83 70 68 66 56 44 38 33 29 24 19 11 4 3 6 1 359 1 357 355 350 348 349 347 343 340 340
207 205 215 190 182 192 204 205 220 248 267 269 262 258 263 208 196 161 162 167 184 184 210 305 347 2 4 358 0 2 359 0 0 358 353 347 344 340 334 335 335 332 333 339 339 336 335 334 331
215 211 219 199 199 215 226 227 232 245 259 271 260 259 203 225 208 175 166 192 192 206 251 266 276 286 299 305 311 312 316 320 323 325 327 331 329 322 310 303 303 305 311 317 316 314 316 316 315
217 221 225 225 218 220 232 229 233 247 258 275 265 261 255 239 242 248 232 247 259 269 264 266 272 277 282 283 286 289 296 303 304 305 304 304 307 309 304 296 290 290 294 297 298 299 300 301 303
224 227 231 232 225 221 229 233 244 248 260 267 263 269 273 276 271 262 258 266 281 276 268 269 272 274 276 279 281 285 288 290 292 293 294 295 296 297 298 297 294 290 290 293 291 288 287 289 294
233 235 232 241 241 228 221 233 241 246 250 268 275 270 270 278 279 263 266 280 278 270 264 263 267 272 274 273 276 280 282 283 286 288 289 288 290 290 288 287 287 284 282 286 288 285 282 281 284
241 239 238 241 247 238 226 231 238 238 249 256 268 276 271 274 265 257 265 267 269 274 274 272 268 271 279 282 278 277 278 280 283 286 288 290 289 289 286 282 280 279 278 280 280 282 280 275 279
243 245 242 241 245 247 241 233 231 231 240 244 252 273 269 266 260 260 264 273 290 293 289 289 293 294 291 290 282 279 277 278 281 283 284 286 287 285 282 280 277 276 277 277 279 279 279 277 278
245 246 245 242 242 241 229 228 226 229 237 241 258 264 272 273 270 270 278 288 289 285 285 292 293 290 285 283 283 285 283 280 279 278 280 283 283 283 282 281 280 278 277 279 280 280 277 276 278
245 248 248 245 240 239 227 222 230 233 238 248 256 264 270 276 275 276 279 283 283 280 283 282 278 280 284 285 284 282 281 280 278 277 281 280 282 284 284 283 282 281 280 280 278 277 277 278 279
243 247 248 249 244 239 232 230 231 227 238 244 249 257 264 265 264 268 272 273 271 272 271 271 271 279 287 288 288 285 280 277 278 280 280 280 280 280 282 282 282 281 282 281 281 281 282 282 282
238 241 244 247 249 246 240 244 237 235 235 239 244 253 257 256 259 263 265 267 264 267 274 280 284 286 284 284 284 282 279 279 279 279 280 283 285 286 287 286 282 281 282 282 282 282 282 284 285
226 232 242 247 256 253 250 249 249 248 247 245 246 247 249 251 256 259 262 256 262 269 278 282 287 288 289 285 280 279 279 281 281 280 280 282 284 286 286 285 283 280 278 277 280 282 284 286 285
244 243 244 249 251 255 255 252 246 244 248 246 242 244 246 246 248 250 256 258 265 271 276 281 284 288 290 287 284 282 282 282 282 281 282 283 285 284 282 283 281 279 279 282 284 287 288 290 292
239 246 244 245 249 251 257 258 253 244 246 252 249 247 246 250 250 250 254 260 264 269 274 277 284 287 285 283 281 281 282 280 280 281 282 282 281 280 279 281 278 279 283 288 290 292 293 293 295
226 234 236 242 240 248 263 274 269 263 256 249 249 246 240 242 248 252 256 259 266 273 273 277 281 285 285 284 282 281 280 281 281 281 281 280 280 279 277 276 279 283 287 291 295 296 297 295 294
228 232 234 243 255 255 272 289 259 259 248 246 245 244 240 241 246 252 261 266 267 265 271 276 281 287 287 284 283 281 281 282 283 285 284 285 287 286 283 281 281 284 289 294 298 298 297 294 291
227 238 244 255 260 268 261 272 290 269 254 249 244 222 222 230 236 242 242 244 255 267 273 281 287 282 280 281 285 288 289 284 284 286 287 287 286 284 281 281 284 288 292 295 296 294 291 289 287
222 229 239 245 251 266 255 240 249 260 254 242 241 235 225 217 208 222 230 243 253 267 280 285 285 287 288 291 294 294 293 292 291 290 289 288 285 281 281 284 287 290 293 295 293 290 288 285 284
218 205 147 257 219 233 151 216 244 229 225 223 213 223 218 203 194 205 242 239 256 278 285 285 288 296 302 305 305 303 300 295 291 287 284 283 282 281 282 283 286 289 291 290 287 286 286 286 286
205 199 183 200 198 265 220 237 276 212 199 202 205 190 195 190 219 248 247 254 267 275 279 281 283 292 300 307 312 317 318 307 295 288 285 283 283 283 281 282 286 289 290 289 288 288 288 288 288
205 211 225 229 255 313 228 262 228 208 203 196 190 191 204 219 233 253 263 263 264 271 269 270 281 291 298 307 311 313 312 307 300 293 287 284 283 282 279 282 286 289 288 288 291 294 294 294 292
216 210 206 213 173 248 257 251 221 207 212 212 216 197 213 223 240 253 256 255 249 246 265 291 300 308 309 312 312 311 309 304 294 285 282 280 279 278 274 276 281 286 287 292 299 301 299 296 291
204 207 212 205 220 186 244 254 203 209 209 212 212 193 205 223 226 232 236 236 246 275 295 304 308 309 309 312 310 309 305 299 293 284 279 278 277 276 275 275 279 284 289 294 300 299 295 293 289
221 219 208 195 191 223 232 236 179 184 196 200 187 198 199 196 218 257 275 286 296 302 304 301 302 303 306 306 307 304 300 295 291 285 278 277 276 276 276 277 281 284 287 291 296 297 292 288 285
Height
3169 3170 3170 3172 3176 3173 3173 3175 3175 3176 3177 3177 3178 3179 3180 3179 3180 3183 3179 3179 3179 3179 3179 3180 3179 3179 3180 3180 3179 3179 3178 3178 3177 3177 3176 3175 3175 3175 3174 3174 3174 3174 3173 3173 3172 3172 3172 3171 3170
3169 3170 3170 3171 3173 3172 3174 3174 3175 3177 3178 3178 3178 3179 3180 3180 3180 3180 3181 3180 3180 3179 3180 3180 3180 3180 3181 3181 3180 3180 3180 3180 3179 3179 3178 3177 3176 3176 3175 3175 3174 3174 3174 3173 3173 3172 3172 3172 3171
3169 3169 3171 3171 3171 3172 3173 3174 3175 3178 3178 3179 3179 3179 3179 3180 3181 3181 3181 3181 3180 3180 3181 3181 3181 3181 3181 3181 3181 3181 3180 3180 3180 3180 3179 3178 3178 3177 3176 3175 3174 3174 3174 3174 3173 3173 3172 3172 3171
3169 3170 3171 3171 3171 3173 3174 3174 3175 3177 3178 3179 3179 3179 3180 3180 3181 3181 3182 3182 3181 3182 3182 3181 3181 3182 3182 3182 3182 3181 3181 3181 3181 3180 3180 3179 3179 3178 3177 3176 3175 3174 3174 3173 3173 3172 3172 3171 3170
3168 3169 3169 3170 3171 3173 3174 3175 3176 3177 3178 3178 3179 3179 3179 3179 3180 3181 3182 3182 3183 3183 3183 3183 3182 3182 3183 3183 3182 3182 3182 3181 3181 3181 3180 3180 3179 3179 3178 3177 3176 3175 3174 3173 3172 3171 3171 3170 3169
3167 3168 3168 3169 3171 3173 3174 3176 3176 3178 3179 3179 3179 3179 3179 3179 3180 3181 3182 3182 3183 3184 3184 3184 3184 3183 3183 3183 3183 3183 3182 3182 3181 3181 3180 3180 3179 3178 3178 3177 3176 3175 3175 3174 3173 3172 3171 3170 3169
3166 3167 3167 3168 3170 3172 3173 3175 3176 3178 3178 3179 3179 3179 3180 3180 3180 3181 3182 3182 3183 3184 3184 3184 3184 3184 3184 3184 3183 3183 3183 3182 3181 3180 3180 3179 3179 3178 3178 3177 3176 3175 3174 3173 3172 3171 3171 3170 3168
3165 3167 3167 3168 3168 3171 3171 3173 3174 3176 3177 3178 3179 3179 3180 3179 3180 3180 3181 3182 3182 3182 3183 3183 3184 3184 3183 3183 3182 3182 3182 3181 3181 3180 3179 3178 3177 3177 3176 3175 3175 3174 3173 3172 3171 3170 3169 3168 3167
3163 3165 3165 3166 3167 3169 3169 3171 3172 3173 3174 3176 3177 3178 3179 3179 3179 3179 3180 3181 3181 3181 3181 3181 3182 3182 3182 3182 3181 3180 3180 3180 3180 3179 3178 3177 3176 3175 3174 3174 3173 3173 3172 3170 3169 3168 3167 3166 3165
3161 3163 3164 3165 3166 3168 3169 3170 3171 3171 3172 3173 3175 3176 3177 3178 3178 3178 3179 3179 3180 3180 3180 3180 3180 3180 3180 3180 3179 3179 3178 3178 3178 3177 3176 3176 3175 3174 3173 3172 3171 3170 3169 3168 3167 3166 3165 3164 3163
3158 3159 3162 3163 3164 3166 3167 3168 3169 3169 3168 3171 3172 3174 3175 3176 3176 3176 3176 3177 3178 3178 3178 3178 3178 3178 3178 3178 3178 3177 3176 3176 3176 3175 3174 3174 3173 3172 3171 3170 3169 3168 3167 3166 3164 3163 3162 3162 3161
3155 3157 3159 3160 3161 3163 3164 3165 3166 3167 3168 3170 3170 3171 3173 3174 3174 3174 3174 3175 3175 3175 3175 3176 3176 3176 3176 3176 3175 3175 3174 3173 3173 3172 3172 3171 3170 3169 3168 3167 3166 3165 3164 3163 3162 3161 3160 3159 3158
3151 3153 3155 3157 3157 3158 3160 3162 3163 3165 3165 3167 3168 3168 3170 3171 3172 3172 3172 3172 3171 3171 3171 3172 3172 3173 3172 3172 3172 3171 3171 3170 3169 3169 3168 3168 3167 3166 3165 3164 3163 3162 3161 3160 3159 3158 3156 3155 3154
3146 3148 3150 3152 3154 3154 3156 3158 3161 3162 3162 3164 3164 3165 3167 3168 3168 3168 3168 3168 3167 3167 3168 3169 3168 3168 3168 3168 3167 3167 3167 3166 3166 3165 3164 3164 3163 3162 3161 3160 3159 3158 3157 3156 3155 3154 3152 3151 3150
3142 3144 3145 3147 3150 3150 3153 3154 3156 3158 3159 3160 3160 3161 3162 3163 3163 3164 3164 3165 3164 3164 3165 3166 3165 3164 3164 3164 3163 3163 3162 3162 3161 3161 3160 3159 3158 3157 3156 3156 3155 3154 3152 3152 3151 3149 3148 3147 3146
3138 3140 3140 3142 3144 3145 3149 3146 3152 3153 3154 3156 3157 3157 3158 3159 3159 3160 3160 3161 3161 3161 3162 3162 3161 3161 3160 3159 3158 3157 3157 3156 3157 3156 3155 3153 3153 3152 3152 3150 3149 3148 3148 3147 3146 3145 3144 3142 3140
3133 3132 3134 3137 3138 3140 3142 3141 3147 3147 3150 3151 3152 3153 3153 3153 3154 3155 3156 3157 3157 3157 3157 3156 3157 3157 3156 3155 3153 3152 3151 3152 3151 3151 3149 3148 3147 3147 3146 3145 3144 3143 3142 3141 3140 3139 3138 3138 3135
3125 3128 3130 3132 3134 3135 3135 3136 3138 3141 3143 3144 3145 3147 3147 3146 3149 3150 3151 3152 3152 3152 3152 3151 3151 3151 3150 3150 3148 3146 3146 3146 3146 3145 3144 3143 3142 3142 3140 3139 3138 3137 3136 3135 3134 3133 3132 3130 3128
3125 3127 3128 3128 3129 3130 3131 3130 3132 3135 3134 3136 3137 3139 3141 3141 3143 3144 3146 3147 3147 3147 3147 3147 3146 3146 3145 3145 3143 3141 3141 3140 3140 3139 3138 3138 3136 3135 3134 3133 3132 3130 3129 3128 3128 3127 3126 3124 3122
3123 3124 3126 3125 3125 3125 3125 3123 3124 3126 3127 3131 3134 3134 3135 3135 3138 3140 3141 3141 3142 3142 3142 3142 3142 3141 3141 3140 3139 3137 3136 3135 3135 3133 3132 3131 3130 3129 3129 3128 3126 3125 3124 3123 3123 3122 3121 3119 3117
3120 3122 3124 3125 3123 3123 3121 3117 3118 3120 3120 3123 3125 3128 3129 3130 3132 3134 3135 3136 3136 3137 3137 3138 3137 3137 3137 3136 3134 3133 3132 3130 3129 3128 3127 3125 3124 3123 3123 3123 3122 3121 3120 3118 3118 3116 3115 3114 3112
3116 3120 3122 3123 3124 3123 3121 3115 3114 3114 3114 3115 3117 3120 3123 3124 3127 3129 3130 3131 3132 3132 3133 3133 3134 3133 3133 3130 3129 3128 3127 3125 3124 3123 3122 3120 3119 3119 3119 3118 3117 3117 3115 3114 3113 3111 3110 3108 3107
3114 3118 3120 3122 3122 3120 3118 3120 3105 3109 3108 3111 3114 3115 3117 3119 3122 3124 3125 3126 3127 3128 3129 3130 3129 3129 3128 3126 3124 3123 3123 3122 3120 3119 3118 3117 3116 3115 3115 3115 3114 3113 3111 3110 3108 3106 3105 3104 3102
3112 3115 3118 3120 3120 3116 3111 3116 3101 3104 3105 3107 3109 3111 3113 3115 3118 3120 3121 3122 3124 3125 3126 3126 3125 3124 3124 3122 3120 3119 3118 3118 3117 3115 3114 3114 3113 3112 3112 3111 3109 3108 3106 3105 3103 3101 3099 3098 3097
3109 3113 3117 3121 3119 3112 3108 3110 3098 3101 3102 3104 3106 3108 3111 3113 3115 3116 3118 3120 3122 3123 3122 3122 3121 3120 3120 3119 3117 3116 3115 3114 3113 3111 3110 3110 3109 3108 3107 3106 3104 3103 3101 3099 3097 3095 3094 3093 3091
3103 3108 3108 3114 3113 3108 3107 3101 3096 3097 3100 3102 3103 3105 3108 3111 3113 3115 3116 3117 3118 3119 3119 3119 3117 3117 3116 3115 3114 3113 3111 3109 3108 3107 3106 3104 3104 3103 3102 3100 3099 3097 3095 3093 3092 3090 3088 3086 3084
3100 3103 3108 3107 3108 3107 3102 3098 3097 3097 3098 3100 3103 3105 3107 3109 3111 3112 3112 3113 3114 3116 3115 3115 3113 3113 3112 3111 3110 3108 3106 3104 3104 3102 3100 3099 3098 3097 3096 3095 3093 3091 3090 3088 3085 3083 3081 3078 3076
3094 3102 3105 3106 3110 3111 3097 3096 3093 3094 3096 3098 3102 3104 3105 3106 3108 3109 3109 3110 3110 3111 3111 3109 3109 3109 3108 3106 3105 3102 3100 3098 3097 3096 3094 3093 3092 3091 3090 3089 3087 3085 3083 3081 3079 3076 3073 3071 3068
3091 3093 3098 3100 3100 3099 3100 3093 3091 3091 3093 3096 3098 3100 3102 3104 3105 3106 3107 3107 3107 3107 3106 3105 3104 3103 3101 3099 3098 3095 3093 3091 3090 3088 3088 3087 3086 3085 3083 3082 3080 3078 3076 3074 3072 3069 3066 3064 3062
3085 3086 3089 3091 3095 3096 3096 3093 3090 3090 3091 3092 3095 3098 3100 3102 3103 3104 3103 3103 3102 3101 3099 3098 3098 3096 3094 3092 3090 3088 3086 3084 3083 3081 3081 3080 3079 3078 3076 3074 3073 3071 3069 3066 3064 3061 3059 3055 3053